GFSNW_prec_precacc24_195.txt.gz
Total_Precipitation_Accumulation
0.15 0.17 0.19 0.22 0.29 0.44 0.58 0.76 1.02 0.24 0.35 1.13 1.99 1.62 0.76 0.37 0.22 0.22 0.56 0.67 0.56 0.45 0.34 0.56 0.54 0.57 0.47 0.36 0.31 0.39 0.57 0.84 0.58 0.21 0.15 0.16 0.21 0.31 0.40 0.66 0.61 0.47 0.34 0.18
0.08 0.10 0.15 0.24 0.36 0.61 0.73 0.82 0.42 0.15 0.57 1.07 0.89 0.58 0.39 0.41 0.44 0.35 0.78 0.82 0.63 0.49 0.46 0.57 0.38 0.41 0.44 0.44 0.62 0.72 0.61 1.01 0.98 0.62 0.62 0.57 0.55 0.62 0.95 1.34 1.53 1.13 1.05 0.78
0.09 0.10 0.12 0.16 0.25 0.51 0.85 0.92 0.63 0.26 0.50 0.56 0.32 0.42 0.55 0.56 0.47 0.36 0.52 0.84 0.62 0.56 0.40 0.27 0.38 0.13 0.09 0.08 0.19 0.35 0.60 0.93 0.66 0.47 0.36 0.52 0.69 0.64 0.69 1.05 1.42 1.09 0.92 0.69
0.09 0.09 0.12 0.16 0.26 0.46 0.88 1.08 0.61 0.21 0.31 0.26 0.27 0.31 0.52 0.30 0.29 0.36 0.24 0.53 0.49 0.56 0.68 0.39 0.27 0.14 0.07 0.04 0.03 0.08 0.32 0.68 0.38 0.28 0.26 0.22 0.19 0.13 0.18 0.43 0.62 0.81 0.59 0.50
0.08 0.09 0.13 0.16 0.23 0.54 0.96 0.84 0.41 0.31 0.19 0.13 0.32 0.66 0.74 0.46 0.41 0.72 0.55 0.47 0.26 0.35 0.58 0.54 0.50 0.41 0.37 0.34 0.21 0.13 0.17 0.28 0.17 0.17 0.07 0.14 0.19 0.10 0.08 0.09 0.11 0.20 0.17 0.15
0.11 0.13 0.16 0.19 0.23 0.39 0.70 0.50 0.40 0.45 0.36 0.19 0.31 0.37 0.45 0.40 0.43 0.36 0.44 0.56 0.69 0.58 0.45 0.33 0.33 0.36 0.44 0.54 0.60 0.52 0.33 0.30 0.32 0.27 0.08 0.22 0.45 0.08 0.02 0.02 0.02 0.06 0.16 0.09
0.16 0.20 0.26 0.25 0.27 0.28 0.24 0.21 0.28 0.50 0.36 0.21 0.17 0.17 0.24 0.29 0.29 0.44 0.24 0.18 0.23 0.20 0.17 0.16 0.17 0.21 0.20 0.22 0.21 0.45 0.61 0.35 0.35 0.26 0.18 0.41 0.12 0.02 0.02 0.04 0.05 0.06 0.07 0.06
0.23 0.24 0.27 0.31 0.30 0.29 0.18 0.15 0.30 0.49 0.42 0.22 0.27 0.29 0.24 0.19 0.20 0.20 0.22 0.25 0.25 0.19 0.22 0.27 0.24 0.19 0.21 0.13 0.07 0.08 0.26 0.52 0.51 0.28 0.20 0.12 0.02 0.00 0.01 0.04 0.02 0.01 0.02 0.08
0.29 0.29 0.26 0.29 0.30 0.35 0.30 0.13 0.20 0.39 0.46 0.32 0.23 0.47 0.39 0.27 0.24 0.33 0.34 0.17 0.11 0.24 0.37 0.42 0.22 0.12 0.16 0.14 0.10 0.09 0.14 0.39 0.88 0.61 0.35 0.13 0.04 0.03 0.01 0.09 0.12 0.07 0.04 0.04
0.25 0.23 0.29 0.26 0.30 0.46 0.51 0.28 0.14 0.25 0.32 0.14 0.15 0.22 0.30 0.31 0.15 0.12 0.08 0.09 0.13 0.21 0.39 0.49 0.40 0.29 0.22 0.24 0.25 0.25 0.36 0.59 0.93 0.83 0.86 0.40 0.13 0.03 0.05 0.20 0.27 0.14 0.05 0.02
0.17 0.18 0.20 0.25 0.31 0.56 0.81 0.38 0.16 0.18 0.17 0.08 0.05 0.04 0.04 0.06 0.09 0.08 0.07 0.07 0.13 0.13 0.17 0.35 0.41 0.35 0.27 0.13 0.10 0.20 0.50 0.63 0.67 0.69 0.92 0.79 0.32 0.20 0.30 0.30 0.17 0.08 0.03 0.03
0.16 0.16 0.20 0.29 0.42 0.57 0.71 0.51 0.27 0.25 0.23 0.13 0.06 0.02 0.02 0.02 0.02 0.05 0.05 0.07 0.09 0.12 0.14 0.20 0.12 0.09 0.11 0.09 0.07 0.05 0.25 0.29 0.45 0.54 0.82 0.78 0.70 0.51 0.25 0.17 0.21 0.11 0.02 0.03
0.12 0.10 0.12 0.30 0.48 0.65 0.46 0.29 0.36 0.33 0.28 0.08 0.01 0.00 0.00 0.00 0.00 0.00 0.05 0.08 0.05 0.06 0.06 0.08 0.06 0.03 0.05 0.02 0.02 0.03 0.09 0.13 0.29 0.22 0.19 0.32 0.58 0.41 0.28 0.17 0.18 0.15 0.03 0.01
0.07 0.09 0.10 0.30 0.62 0.71 0.47 0.34 0.28 0.23 0.17 0.13 0.02 0.00 0.00 0.00 0.00 0.00 0.00 0.05 0.02 0.02 0.02 0.05 0.02 0.02 0.01 0.01 0.01 0.01 0.03 0.06 0.07 0.10 0.07 0.14 0.31 0.13 0.05 0.09 0.16 0.22 0.06 0.04
0.10 0.14 0.19 0.44 0.88 0.79 0.58 0.38 0.21 0.16 0.20 0.15 0.04 0.01 0.00 0.00 0.00 0.00 0.00 0.00 0.04 0.05 0.04 0.03 0.02 0.00 0.01 0.00 0.00 0.00 0.00 0.02 0.20 0.28 0.20 0.22 0.18 0.18 0.32 0.15 0.09 0.18 0.30 0.12
0.21 0.20 0.30 0.62 0.85 0.69 0.40 0.67 0.24 0.09 0.14 0.11 0.05 0.03 0.00 0.00 0.00 0.01 0.02 0.01 0.02 0.04 0.05 0.05 0.01 0.00 0.02 0.00 0.00 0.00 0.00 0.00 0.00 0.00 0.00 0.06 0.18 0.07 0.05 0.07 0.04 0.04 0.20 0.04
0.22 0.25 0.44 0.56 0.51 0.28 0.18 0.15 0.11 0.03 0.10 0.15 0.09 0.06 0.01 0.00 0.01 0.04 0.05 0.04 0.05 0.09 0.11 0.06 0.04 0.03 0.08 0.03 0.00 0.00 0.00 0.00 0.00 0.00 0.00 0.00 0.01 0.01 0.00 0.00 0.00 0.00 0.03 0.06
0.16 0.22 0.34 0.38 0.26 0.17 0.21 0.07 0.07 0.12 0.14 0.08 0.07 0.07 0.02 0.01 0.05 0.10 0.05 0.10 0.13 0.09 0.08 0.04 0.05 0.03 0.06 0.06 0.00 0.00 0.00 0.00 0.00 0.00 0.00 0.00 0.00 0.00 0.00 0.00 0.00 0.00 0.00 0.01
0.11 0.13 0.22 0.34 0.31 0.34 0.23 0.10 0.11 0.12 0.12 0.06 0.04 0.06 0.08 0.02 0.09 0.13 0.15 0.16 0.13 0.08 0.06 0.02 0.03 0.04 0.04 0.00 0.00 0.01 0.01 0.01 0.00 0.00 0.00 0.00 0.00 0.00 0.00 0.00 0.00 0.00 0.00 0.00
0.02 0.04 0.12 0.27 0.26 0.20 0.08 0.07 0.16 0.16 0.08 0.03 0.04 0.03 0.05 0.06 0.13 0.16 0.10 0.11 0.10 0.10 0.04 0.02 0.03 0.01 0.03 0.12 0.23 0.18 0.07 0.04 0.04 0.06 0.01 0.01 0.00 0.00 0.00 0.00 0.00 0.00 0.00 0.00
0.02 0.03 0.09 0.07 0.03 0.05 0.06 0.03 0.02 0.03 0.03 0.02 0.01 0.00 0.01 0.02 0.04 0.07 0.12 0.16 0.21 0.23 0.06 0.05 0.06 0.08 0.19 0.41 0.59 0.32 0.12 0.04 0.03 0.04 0.04 0.04 0.02 0.00 0.02 0.02 0.00 0.00 0.00 0.00
0.01 0.01 0.01 0.03 0.05 0.07 0.02 0.02 0.01 0.02 0.01 0.01 0.03 0.03 0.02 0.03 0.03 0.05 0.05 0.07 0.07 0.13 0.27 0.33 0.23 0.20 0.41 0.46 0.46 0.15 0.04 0.01 0.01 0.03 0.05 0.02 0.01 0.03 0.03 0.02 0.02 0.01 0.01 0.01
0.01 0.01 0.01 0.02 0.00 0.01 0.01 0.00 0.00 0.00 0.00 0.02 0.04 0.14 0.16 0.11 0.09 0.20 0.16 0.15 0.10 0.08 0.30 0.54 0.44 0.37 0.22 0.18 0.16 0.14 0.05 0.02 0.02 0.02 0.12 0.06 0.01 0.01 0.05 0.02 0.01 0.00 0.00 0.02
0.00 0.00 0.00 0.00 0.00 0.00 0.00 0.01 0.02 0.03 0.03 0.05 0.12 0.24 0.30 0.33 0.45 0.26 0.35 0.21 0.12 0.22 0.40 0.51 0.42 0.08 0.20 0.09 0.13 0.08 0.09 0.12 0.07 0.04 0.08 0.17 0.06 0.05 0.14 0.04 0.01 0.00 0.01 0.01
0.00 0.00 0.01 0.01 0.00 0.03 0.04 0.04 0.05 0.04 0.05 0.14 0.33 0.28 0.33 0.51 0.47 0.18 0.18 0.15 0.28 0.45 0.23 0.62 0.10 0.02 0.08 0.11 0.06 0.06 0.06 0.05 0.08 0.12 0.25 0.29 0.18 0.12 0.22 0.18 0.07 0.02 0.02 0.02
0.01 0.02 0.01 0.02 0.04 0.08 0.13 0.06 0.05 0.16 0.22 0.23 0.31 0.37 0.54 0.40 0.18 0.21 0.12 0.17 0.53 0.46 0.10 0.05 0.01 0.00 0.00 0.00 0.02 0.02 0.04 0.04 0.02 0.03 0.07 0.13 0.14 0.15 0.08 0.10 0.11 0.06 0.02 0.00
0.00 0.01 0.03 0.04 0.03 0.02 0.03 0.04 0.06 0.12 0.21 0.35 0.38 0.67 0.49 0.46 0.42 0.61 0.31 0.47 0.80 0.28 0.06 0.00 0.00 0.00 0.00 0.00 0.00 0.00 0.00 0.00 0.00 0.00 0.00 0.00 0.00 0.00 0.02 0.01 0.01 0.01 0.01 0.01

GFSNW_prec_precacc24_198.txt.gz
Total_Precipitation_Accumulation
0.16 0.18 0.20 0.22 0.29 0.44 0.52 0.60 0.72 0.14 0.24 0.80 1.58 1.44 0.76 0.38 0.22 0.22 0.59 0.70 0.59 0.50 0.35 0.61 0.57 0.59 0.43 0.37 0.35 0.54 0.68 0.97 0.68 0.25 0.16 0.19 0.31 0.54 0.75 1.09 1.02 0.85 0.76 0.43
0.08 0.10 0.15 0.23 0.35 0.61 0.68 0.75 0.33 0.11 0.47 0.78 0.66 0.46 0.37 0.42 0.44 0.36 0.81 0.86 0.64 0.50 0.45 0.53 0.35 0.41 0.40 0.38 0.58 0.75 0.63 1.07 1.04 0.63 0.62 0.65 0.62 0.65 0.97 1.41 1.67 1.20 1.18 0.85
0.07 0.09 0.11 0.16 0.25 0.50 0.81 0.90 0.54 0.22 0.42 0.39 0.27 0.34 0.46 0.47 0.39 0.34 0.51 0.87 0.66 0.61 0.42 0.27 0.36 0.13 0.08 0.08 0.18 0.33 0.58 0.91 0.67 0.49 0.37 0.53 0.67 0.63 0.67 1.02 1.42 1.15 0.96 0.70
0.07 0.08 0.10 0.15 0.27 0.48 0.88 1.05 0.57 0.17 0.27 0.23 0.20 0.28 0.44 0.22 0.24 0.33 0.25 0.54 0.51 0.60 0.72 0.40 0.27 0.14 0.08 0.05 0.04 0.07 0.31 0.66 0.38 0.28 0.26 0.22 0.19 0.14 0.18 0.41 0.61 0.81 0.59 0.50
0.07 0.08 0.13 0.16 0.24 0.57 1.00 0.82 0.39 0.29 0.17 0.12 0.31 0.66 0.72 0.42 0.37 0.63 0.46 0.45 0.28 0.39 0.63 0.57 0.51 0.42 0.39 0.37 0.21 0.13 0.19 0.31 0.17 0.17 0.07 0.14 0.19 0.10 0.08 0.09 0.11 0.20 0.17 0.15
0.12 0.13 0.16 0.19 0.24 0.47 0.77 0.53 0.38 0.47 0.37 0.20 0.28 0.28 0.37 0.38 0.43 0.36 0.37 0.46 0.58 0.57 0.47 0.40 0.42 0.41 0.45 0.54 0.60 0.51 0.31 0.27 0.29 0.24 0.08 0.21 0.42 0.08 0.02 0.02 0.02 0.06 0.16 0.09
0.17 0.22 0.28 0.28 0.29 0.34 0.30 0.23 0.27 0.52 0.34 0.18 0.16 0.16 0.20 0.21 0.24 0.42 0.24 0.19 0.23 0.16 0.12 0.14 0.18 0.21 0.20 0.22 0.21 0.45 0.60 0.32 0.31 0.23 0.17 0.39 0.11 0.02 0.02 0.04 0.05 0.06 0.07 0.06
0.24 0.27 0.31 0.35 0.35 0.34 0.26 0.21 0.27 0.42 0.37 0.20 0.17 0.14 0.18 0.20 0.21 0.18 0.21 0.25 0.25 0.17 0.20 0.22 0.20 0.19 0.20 0.13 0.07 0.08 0.26 0.50 0.49 0.24 0.17 0.11 0.02 0.00 0.01 0.05 0.03 0.01 0.02 0.08
0.28 0.33 0.31 0.32 0.35 0.42 0.38 0.20 0.22 0.41 0.47 0.33 0.21 0.42 0.47 0.33 0.30 0.35 0.33 0.11 0.09 0.22 0.34 0.39 0.19 0.10 0.14 0.12 0.08 0.09 0.16 0.44 0.91 0.62 0.33 0.13 0.05 0.03 0.00 0.04 0.05 0.02 0.01 0.04
0.24 0.26 0.33 0.29 0.36 0.58 0.65 0.37 0.16 0.31 0.34 0.16 0.19 0.26 0.36 0.41 0.21 0.15 0.11 0.09 0.13 0.20 0.35 0.42 0.39 0.28 0.22 0.25 0.26 0.26 0.32 0.56 0.97 0.90 0.89 0.42 0.13 0.03 0.04 0.20 0.21 0.16 0.15 0.13
0.18 0.18 0.22 0.30 0.43 0.72 0.96 0.47 0.18 0.22 0.24 0.10 0.08 0.06 0.07 0.13 0.17 0.15 0.15 0.09 0.14 0.18 0.21 0.33 0.37 0.41 0.37 0.20 0.15 0.23 0.50 0.58 0.66 0.67 1.00 0.93 0.30 0.16 0.26 0.31 0.16 0.10 0.07 0.14
0.16 0.16 0.21 0.27 0.36 0.58 0.77 0.57 0.42 0.29 0.26 0.13 0.07 0.03 0.03 0.05 0.07 0.10 0.10 0.13 0.14 0.15 0.17 0.26 0.15 0.12 0.12 0.08 0.08 0.04 0.23 0.28 0.42 0.49 0.75 0.68 0.59 0.48 0.25 0.18 0.21 0.15 0.06 0.15
0.12 0.10 0.11 0.29 0.44 0.59 0.45 0.33 0.45 0.43 0.28 0.09 0.01 0.00 0.00 0.00 0.00 0.00 0.05 0.12 0.10 0.10 0.07 0.07 0.06 0.02 0.01 0.00 0.01 0.01 0.01 0.01 0.02 0.12 0.19 0.31 0.55 0.36 0.27 0.18 0.19 0.17 0.07 0.04
0.06 0.07 0.08 0.29 0.62 0.66 0.39 0.27 0.26 0.20 0.15 0.16 0.09 0.00 0.00 0.00 0.00 0.00 0.00 0.06 0.04 0.04 0.01 0.03 0.02 0.01 0.00 0.00 0.00 0.01 0.00 0.00 0.00 0.05 0.06 0.14 0.30 0.13 0.05 0.09 0.16 0.25 0.12 0.11
0.09 0.11 0.17 0.44 0.89 0.79 0.55 0.33 0.15 0.12 0.26 0.31 0.12 0.01 0.00 0.00 0.00 0.00 0.00 0.01 0.05 0.07 0.06 0.04 0.02 0.00 0.00 0.00 0.00 0.00 0.00 0.00 0.05 0.19 0.18 0.20 0.17 0.17 0.32 0.15 0.10 0.20 0.38 0.27
0.21 0.18 0.29 0.64 0.87 0.70 0.36 0.50 0.18 0.08 0.13 0.12 0.11 0.05 0.00 0.00 0.00 0.02 0.04 0.04 0.02 0.03 0.04 0.05 0.01 0.00 0.04 0.03 0.01 0.00 0.00 0.00 0.00 0.00 0.00 0.06 0.18 0.07 0.05 0.07 0.04 0.04 0.25 0.19
0.19 0.21 0.39 0.52 0.45 0.22 0.08 0.09 0.10 0.03 0.09 0.15 0.14 0.14 0.02 0.00 0.02 0.08 0.09 0.08 0.08 0.11 0.12 0.06 0.04 0.02 0.11 0.08 0.03 0.00 0.00 0.00 0.00 0.00 0.00 0.00 0.01 0.01 0.00 0.00 0.00 0.00 0.03 0.08
0.12 0.18 0.28 0.26 0.11 0.04 0.05 0.05 0.08 0.11 0.16 0.09 0.10 0.15 0.05 0.00 0.06 0.14 0.08 0.15 0.15 0.10 0.09 0.04 0.03 0.02 0.05 0.06 0.01 0.00 0.00 0.00 0.00 0.00 0.00 0.00 0.00 0.00 0.00 0.00 0.00 0.00 0.00 0.02
0.10 0.11 0.10 0.08 0.06 0.13 0.13 0.08 0.09 0.10 0.12 0.06 0.07 0.12 0.20 0.03 0.08 0.10 0.09 0.09 0.08 0.07 0.06 0.04 0.02 0.01 0.04 0.01 0.01 0.02 0.01 0.02 0.02 0.01 0.00 0.00 0.00 0.00 0.00 0.00 0.00 0.00 0.00 0.00
0.01 0.03 0.09 0.16 0.16 0.16 0.08 0.07 0.15 0.16 0.09 0.06 0.07 0.07 0.10 0.04 0.09 0.05 0.03 0.05 0.05 0.07 0.05 0.02 0.02 0.02 0.04 0.16 0.29 0.24 0.10 0.06 0.07 0.08 0.03 0.02 0.01 0.01 0.00 0.00 0.00 0.00 0.00 0.00
0.02 0.05 0.08 0.05 0.03 0.05 0.04 0.03 0.02 0.04 0.04 0.04 0.02 0.02 0.05 0.03 0.02 0.04 0.05 0.11 0.13 0.14 0.07 0.05 0.07 0.18 0.21 0.45 0.61 0.34 0.13 0.05 0.06 0.06 0.05 0.06 0.05 0.04 0.03 0.02 0.01 0.00 0.00 0.02
0.01 0.01 0.01 0.02 0.04 0.04 0.02 0.02 0.01 0.02 0.04 0.02 0.03 0.05 0.02 0.03 0.01 0.04 0.07 0.06 0.04 0.04 0.17 0.31 0.31 0.26 0.41 0.47 0.47 0.16 0.05 0.01 0.03 0.06 0.10 0.06 0.06 0.07 0.08 0.06 0.06 0.05 0.03 0.02
0.01 0.01 0.01 0.01 0.01 0.01 0.01 0.01 0.01 0.02 0.00 0.01 0.03 0.08 0.10 0.07 0.09 0.18 0.13 0.07 0.06 0.07 0.23 0.53 0.47 0.37 0.22 0.18 0.17 0.15 0.09 0.04 0.02 0.03 0.13 0.07 0.02 0.02 0.05 0.02 0.01 0.01 0.02 0.02
0.01 0.01 0.00 0.00 0.00 0.00 0.00 0.01 0.03 0.05 0.01 0.04 0.13 0.23 0.25 0.16 0.34 0.18 0.22 0.18 0.11 0.19 0.40 0.55 0.43 0.08 0.20 0.09 0.13 0.08 0.09 0.13 0.08 0.06 0.09 0.17 0.07 0.05 0.15 0.05 0.02 0.00 0.01 0.01
0.00 0.00 0.00 0.00 0.00 0.00 0.01 0.01 0.01 0.03 0.06 0.15 0.32 0.27 0.29 0.30 0.34 0.16 0.15 0.16 0.27 0.46 0.30 0.61 0.07 0.02 0.07 0.11 0.06 0.06 0.06 0.05 0.08 0.13 0.26 0.30 0.19 0.19 0.31 0.23 0.10 0.04 0.03 0.02
0.00 0.00 0.00 0.02 0.03 0.04 0.06 0.02 0.02 0.09 0.21 0.25 0.29 0.29 0.41 0.36 0.16 0.23 0.12 0.19 0.57 0.52 0.09 0.03 0.01 0.00 0.00 0.00 0.02 0.02 0.04 0.04 0.02 0.03 0.08 0.14 0.15 0.17 0.13 0.16 0.16 0.08 0.04 0.02
0.00 0.00 0.02 0.04 0.04 0.02 0.02 0.03 0.05 0.12 0.21 0.31 0.33 0.59 0.49 0.48 0.44 0.62 0.34 0.50 0.81 0.27 0.06 0.00 0.00 0.00 0.00 0.00 0.00 0.00 0.00 0.00 0.00 0.00 0.00 0.00 0.00 0.00 0.02 0.01 0.03 0.04 0.02 0.02

GFSNW_prec_precacc24_201.txt.gz
Total_Precipitation_Accumulation
0.15 0.19 0.21 0.23 0.29 0.42 0.49 0.56 0.58 0.13 0.20 0.49 1.15 1.17 0.70 0.38 0.22 0.21 0.59 0.71 0.59 0.49 0.35 0.64 0.65 0.63 0.43 0.36 0.36 0.60 0.73 1.05 0.73 0.26 0.17 0.22 0.42 0.72 0.91 1.26 1.22 1.04 0.97 0.53
0.07 0.09 0.15 0.23 0.36 0.60 0.64 0.71 0.31 0.12 0.49 0.58 0.37 0.30 0.33 0.41 0.44 0.36 0.77 0.88 0.68 0.52 0.44 0.53 0.32 0.38 0.39 0.37 0.55 0.75 0.66 1.09 1.09 0.64 0.63 0.69 0.72 0.73 1.08 1.53 1.77 1.30 1.32 0.90
0.06 0.08 0.09 0.14 0.26 0.50 0.77 0.85 0.49 0.21 0.38 0.29 0.21 0.25 0.34 0.39 0.35 0.34 0.47 0.81 0.67 0.62 0.43 0.28 0.35 0.09 0.06 0.11 0.22 0.35 0.60 0.87 0.64 0.49 0.37 0.54 0.67 0.64 0.69 1.03 1.44 1.13 0.94 0.68
0.07 0.08 0.10 0.14 0.24 0.49 0.86 0.92 0.50 0.15 0.25 0.20 0.16 0.22 0.30 0.13 0.17 0.29 0.24 0.50 0.49 0.58 0.67 0.41 0.27 0.14 0.08 0.05 0.07 0.10 0.31 0.64 0.38 0.28 0.26 0.22 0.19 0.14 0.18 0.41 0.60 0.78 0.58 0.51
0.08 0.09 0.14 0.17 0.25 0.59 1.01 0.77 0.35 0.27 0.17 0.10 0.25 0.56 0.62 0.36 0.29 0.47 0.33 0.34 0.25 0.37 0.55 0.53 0.49 0.42 0.40 0.38 0.25 0.18 0.22 0.35 0.20 0.19 0.08 0.14 0.19 0.10 0.08 0.10 0.12 0.21 0.17 0.15
0.12 0.15 0.18 0.19 0.25 0.54 0.81 0.55 0.38 0.45 0.34 0.20 0.25 0.21 0.26 0.26 0.37 0.32 0.32 0.42 0.50 0.43 0.33 0.31 0.37 0.42 0.48 0.57 0.61 0.53 0.34 0.29 0.27 0.22 0.08 0.20 0.40 0.08 0.02 0.02 0.02 0.06 0.16 0.09
0.16 0.23 0.31 0.31 0.31 0.41 0.34 0.24 0.26 0.51 0.33 0.19 0.15 0.12 0.15 0.16 0.14 0.23 0.09 0.15 0.24 0.19 0.09 0.09 0.11 0.14 0.17 0.21 0.23 0.47 0.60 0.31 0.28 0.20 0.16 0.36 0.10 0.02 0.02 0.04 0.05 0.06 0.07 0.06
0.22 0.27 0.33 0.40 0.41 0.43 0.35 0.26 0.28 0.36 0.33 0.20 0.18 0.14 0.12 0.13 0.16 0.15 0.18 0.18 0.15 0.19 0.23 0.25 0.18 0.16 0.18 0.09 0.06 0.08 0.26 0.50 0.49 0.24 0.17 0.11 0.02 0.00 0.01 0.02 0.02 0.01 0.02 0.08
0.26 0.32 0.31 0.36 0.42 0.51 0.48 0.24 0.24 0.39 0.42 0.29 0.16 0.31 0.41 0.30 0.26 0.30 0.18 0.06 0.06 0.23 0.34 0.38 0.19 0.08 0.12 0.11 0.08 0.08 0.17 0.46 0.93 0.63 0.35 0.13 0.05 0.03 0.00 0.03 0.04 0.01 0.01 0.03
0.23 0.24 0.34 0.31 0.42 0.66 0.74 0.45 0.18 0.46 0.38 0.15 0.20 0.28 0.38 0.41 0.28 0.26 0.16 0.12 0.16 0.23 0.35 0.38 0.36 0.28 0.22 0.24 0.26 0.25 0.32 0.54 0.93 0.90 0.92 0.49 0.20 0.03 0.04 0.21 0.20 0.15 0.14 0.13
0.17 0.16 0.21 0.31 0.45 0.78 1.06 0.60 0.22 0.27 0.33 0.12 0.08 0.08 0.08 0.17 0.27 0.33 0.25 0.14 0.19 0.21 0.23 0.34 0.37 0.38 0.41 0.23 0.20 0.29 0.52 0.56 0.65 0.59 0.87 0.94 0.31 0.15 0.23 0.27 0.13 0.10 0.06 0.13
0.16 0.16 0.20 0.27 0.35 0.66 0.93 0.79 0.51 0.31 0.26 0.18 0.08 0.02 0.02 0.06 0.14 0.23 0.14 0.19 0.22 0.22 0.20 0.30 0.16 0.16 0.22 0.16 0.12 0.10 0.26 0.28 0.41 0.46 0.69 0.63 0.55 0.46 0.24 0.17 0.21 0.15 0.06 0.16
0.12 0.10 0.10 0.28 0.42 0.54 0.45 0.38 0.44 0.41 0.30 0.10 0.02 0.00 0.00 0.00 0.01 0.02 0.06 0.13 0.13 0.14 0.08 0.07 0.05 0.02 0.01 0.01 0.02 0.01 0.01 0.01 0.01 0.04 0.14 0.16 0.42 0.32 0.26 0.18 0.19 0.17 0.07 0.07
0.06 0.06 0.07 0.27 0.60 0.56 0.29 0.25 0.25 0.21 0.21 0.16 0.09 0.01 0.00 0.00 0.00 0.00 0.00 0.06 0.04 0.04 0.02 0.03 0.02 0.01 0.00 0.00 0.00 0.00 0.00 0.00 0.00 0.00 0.01 0.01 0.16 0.08 0.04 0.09 0.16 0.25 0.12 0.13
0.09 0.10 0.16 0.42 0.87 0.70 0.37 0.28 0.13 0.08 0.22 0.44 0.27 0.01 0.00 0.00 0.00 0.00 0.00 0.01 0.06 0.08 0.07 0.06 0.03 0.00 0.01 0.00 0.00 0.00 0.00 0.01 0.01 0.00 0.00 0.01 0.07 0.15 0.31 0.15 0.10 0.20 0.38 0.29
0.18 0.17 0.27 0.63 0.85 0.68 0.31 0.41 0.15 0.05 0.05 0.11 0.15 0.07 0.01 0.00 0.00 0.02 0.04 0.05 0.03 0.04 0.06 0.06 0.01 0.00 0.05 0.03 0.01 0.00 0.00 0.00 0.00 0.00 0.00 0.00 0.09 0.07 0.05 0.07 0.04 0.04 0.25 0.21
0.16 0.19 0.37 0.50 0.44 0.21 0.08 0.10 0.11 0.03 0.09 0.15 0.15 0.19 0.04 0.00 0.02 0.08 0.10 0.10 0.09 0.14 0.13 0.06 0.03 0.02 0.10 0.08 0.04 0.02 0.00 0.00 0.00 0.00 0.00 0.00 0.01 0.01 0.00 0.00 0.00 0.00 0.03 0.09
0.09 0.14 0.21 0.18 0.09 0.03 0.04 0.05 0.07 0.10 0.16 0.11 0.12 0.19 0.08 0.02 0.06 0.16 0.11 0.19 0.15 0.10 0.09 0.04 0.03 0.01 0.05 0.06 0.01 0.00 0.00 0.00 0.00 0.00 0.00 0.00 0.00 0.00 0.00 0.00 0.00 0.00 0.00 0.02
0.07 0.06 0.03 0.02 0.02 0.02 0.08 0.08 0.06 0.05 0.11 0.06 0.07 0.16 0.27 0.08 0.09 0.11 0.07 0.06 0.06 0.06 0.06 0.05 0.03 0.02 0.06 0.03 0.01 0.02 0.01 0.02 0.03 0.02 0.00 0.00 0.00 0.00 0.00 0.00 0.00 0.00 0.00 0.00
0.00 0.02 0.05 0.06 0.05 0.06 0.05 0.03 0.14 0.15 0.08 0.08 0.07 0.10 0.16 0.06 0.11 0.06 0.03 0.02 0.02 0.05 0.05 0.03 0.02 0.04 0.05 0.16 0.29 0.25 0.10 0.06 0.08 0.11 0.04 0.03 0.02 0.01 0.00 0.00 0.00 0.00 0.00 0.00
0.01 0.05 0.06 0.04 0.02 0.03 0.01 0.02 0.03 0.06 0.06 0.07 0.04 0.04 0.08 0.04 0.01 0.04 0.02 0.05 0.08 0.10 0.08 0.05 0.09 0.29 0.21 0.45 0.61 0.34 0.13 0.05 0.06 0.07 0.07 0.07 0.07 0.06 0.04 0.03 0.02 0.00 0.00 0.02
0.00 0.00 0.01 0.01 0.02 0.02 0.02 0.02 0.01 0.02 0.05 0.04 0.03 0.05 0.01 0.02 0.01 0.04 0.06 0.06 0.04 0.04 0.03 0.15 0.38 0.29 0.41 0.47 0.47 0.16 0.05 0.01 0.03 0.06 0.10 0.07 0.08 0.09 0.09 0.08 0.07 0.06 0.03 0.03
0.02 0.03 0.02 0.01 0.01 0.01 0.01 0.02 0.01 0.04 0.01 0.01 0.02 0.08 0.09 0.07 0.08 0.18 0.13 0.07 0.06 0.06 0.14 0.33 0.51 0.36 0.21 0.18 0.16 0.15 0.09 0.04 0.02 0.03 0.13 0.07 0.02 0.02 0.05 0.02 0.01 0.01 0.02 0.03
0.02 0.03 0.01 0.00 0.01 0.00 0.00 0.01 0.05 0.06 0.03 0.04 0.08 0.15 0.20 0.15 0.20 0.16 0.15 0.10 0.10 0.17 0.39 0.58 0.44 0.08 0.17 0.08 0.10 0.07 0.09 0.12 0.08 0.06 0.09 0.17 0.07 0.06 0.16 0.05 0.02 0.01 0.01 0.01
0.00 0.01 0.01 0.00 0.01 0.01 0.01 0.00 0.00 0.03 0.06 0.16 0.31 0.25 0.24 0.26 0.22 0.11 0.10 0.14 0.26 0.46 0.30 0.50 0.06 0.01 0.04 0.09 0.04 0.05 0.05 0.05 0.08 0.13 0.26 0.30 0.19 0.21 0.34 0.25 0.13 0.07 0.04 0.03
0.00 0.00 0.00 0.02 0.03 0.04 0.04 0.02 0.01 0.07 0.15 0.23 0.27 0.22 0.27 0.23 0.11 0.20 0.11 0.19 0.57 0.55 0.11 0.04 0.01 0.00 0.00 0.00 0.02 0.02 0.04 0.04 0.02 0.03 0.08 0.14 0.16 0.18 0.15 0.18 0.19 0.11 0.05 0.03
0.00 0.00 0.02 0.04 0.04 0.03 0.03 0.03 0.04 0.11 0.16 0.26 0.27 0.42 0.39 0.48 0.43 0.62 0.37 0.51 0.78 0.25 0.06 0.00 0.00 0.00 0.00 0.00 0.00 0.00 0.00 0.00 0.00 0.01 0.00 0.00 0.00 0.00 0.02 0.02 0.04 0.06 0.04 0.03

GFSNW_prec_precacc24_204.txt.gz
Total_Precipitation_Accumulation
0.10 0.11 0.16 0.22 0.30 0.42 0.46 0.54 0.57 0.13 0.20 0.35 0.75 0.87 0.58 0.37 0.22 0.22 0.61 0.72 0.59 0.50 0.35 0.65 0.66 0.63 0.41 0.35 0.35 0.61 0.76 1.16 0.77 0.26 0.17 0.20 0.37 0.69 0.89 1.25 1.26 1.07 1.03 0.55
0.05 0.05 0.07 0.17 0.33 0.57 0.60 0.64 0.30 0.14 0.51 0.51 0.23 0.12 0.18 0.33 0.38 0.34 0.73 0.84 0.69 0.54 0.46 0.57 0.32 0.29 0.23 0.27 0.46 0.65 0.63 1.15 1.14 0.65 0.63 0.69 0.65 0.66 1.02 1.46 1.69 1.25 1.30 0.87
0.06 0.07 0.07 0.12 0.25 0.51 0.71 0.71 0.41 0.20 0.35 0.27 0.17 0.19 0.23 0.24 0.20 0.23 0.37 0.69 0.62 0.58 0.38 0.29 0.37 0.10 0.03 0.11 0.19 0.26 0.56 0.89 0.64 0.49 0.37 0.54 0.68 0.65 0.71 1.06 1.44 1.11 0.92 0.68
0.08 0.10 0.11 0.14 0.25 0.48 0.73 0.74 0.41 0.15 0.23 0.17 0.12 0.19 0.20 0.06 0.09 0.18 0.16 0.30 0.35 0.53 0.60 0.37 0.26 0.15 0.07 0.04 0.08 0.17 0.43 0.69 0.38 0.28 0.26 0.22 0.19 0.14 0.19 0.42 0.61 0.78 0.58 0.51
0.07 0.10 0.15 0.20 0.32 0.64 0.90 0.65 0.29 0.26 0.16 0.10 0.18 0.37 0.42 0.24 0.21 0.33 0.22 0.24 0.18 0.32 0.43 0.43 0.35 0.33 0.36 0.36 0.24 0.22 0.29 0.41 0.20 0.19 0.08 0.14 0.19 0.11 0.08 0.10 0.13 0.22 0.18 0.16
0.10 0.13 0.17 0.19 0.27 0.62 0.90 0.55 0.39 0.44 0.32 0.20 0.24 0.18 0.16 0.14 0.20 0.17 0.17 0.28 0.34 0.27 0.21 0.24 0.30 0.31 0.35 0.46 0.56 0.53 0.39 0.38 0.35 0.28 0.09 0.18 0.34 0.08 0.02 0.02 0.02 0.06 0.16 0.09
0.15 0.21 0.30 0.31 0.33 0.51 0.47 0.29 0.27 0.52 0.37 0.20 0.15 0.12 0.13 0.13 0.13 0.16 0.06 0.11 0.14 0.12 0.08 0.07 0.09 0.11 0.11 0.13 0.19 0.47 0.69 0.40 0.34 0.23 0.16 0.34 0.10 0.02 0.02 0.04 0.05 0.06 0.07 0.06
0.21 0.26 0.32 0.39 0.42 0.50 0.46 0.31 0.32 0.36 0.28 0.18 0.17 0.15 0.15 0.14 0.13 0.10 0.11 0.10 0.08 0.09 0.13 0.25 0.18 0.14 0.16 0.07 0.02 0.06 0.25 0.50 0.56 0.27 0.17 0.11 0.02 0.00 0.01 0.02 0.02 0.01 0.02 0.08
0.23 0.31 0.31 0.36 0.44 0.59 0.60 0.28 0.26 0.50 0.38 0.20 0.12 0.25 0.31 0.27 0.25 0.24 0.12 0.02 0.02 0.12 0.26 0.41 0.20 0.07 0.11 0.11 0.08 0.08 0.16 0.44 0.88 0.66 0.40 0.14 0.05 0.03 0.00 0.03 0.05 0.01 0.01 0.03
0.21 0.22 0.32 0.29 0.44 0.72 0.83 0.57 0.19 0.60 0.52 0.12 0.13 0.25 0.34 0.36 0.29 0.26 0.18 0.14 0.17 0.26 0.40 0.39 0.33 0.27 0.21 0.22 0.24 0.24 0.32 0.53 0.92 0.91 0.94 0.51 0.20 0.03 0.04 0.22 0.22 0.15 0.13 0.12
0.16 0.14 0.18 0.28 0.43 0.79 1.08 0.70 0.28 0.30 0.39 0.13 0.07 0.06 0.09 0.18 0.28 0.36 0.46 0.36 0.26 0.28 0.29 0.35 0.36 0.38 0.41 0.23 0.24 0.34 0.56 0.53 0.64 0.56 0.81 0.89 0.31 0.14 0.21 0.25 0.13 0.09 0.06 0.13
0.15 0.15 0.17 0.24 0.33 0.69 0.94 0.82 0.57 0.40 0.27 0.18 0.07 0.02 0.02 0.07 0.19 0.26 0.19 0.22 0.27 0.36 0.25 0.30 0.16 0.16 0.25 0.21 0.20 0.13 0.33 0.30 0.42 0.46 0.68 0.60 0.54 0.45 0.24 0.17 0.21 0.15 0.06 0.16
0.10 0.09 0.09 0.24 0.41 0.57 0.45 0.50 0.50 0.60 0.35 0.10 0.02 0.00 0.00 0.00 0.02 0.04 0.08 0.14 0.13 0.15 0.09 0.07 0.05 0.02 0.01 0.01 0.02 0.01 0.01 0.01 0.01 0.04 0.14 0.16 0.42 0.32 0.25 0.17 0.19 0.17 0.07 0.07
0.06 0.06 0.07 0.24 0.57 0.54 0.25 0.23 0.25 0.21 0.21 0.16 0.09 0.01 0.01 0.00 0.02 0.00 0.02 0.07 0.04 0.04 0.02 0.03 0.02 0.01 0.00 0.00 0.00 0.00 0.00 0.00 0.00 0.00 0.01 0.00 0.03 0.02 0.02 0.06 0.14 0.25 0.12 0.13
0.08 0.11 0.16 0.41 0.83 0.67 0.31 0.18 0.10 0.08 0.20 0.44 0.29 0.01 0.00 0.00 0.00 0.00 0.01 0.01 0.06 0.08 0.07 0.06 0.03 0.00 0.01 0.00 0.00 0.00 0.00 0.01 0.01 0.00 0.00 0.00 0.00 0.00 0.07 0.07 0.07 0.20 0.38 0.29
0.15 0.14 0.23 0.60 0.82 0.66 0.22 0.15 0.09 0.05 0.03 0.08 0.16 0.09 0.03 0.00 0.00 0.02 0.04 0.05 0.03 0.04 0.06 0.06 0.01 0.01 0.06 0.03 0.01 0.00 0.00 0.00 0.00 0.00 0.00 0.00 0.00 0.00 0.04 0.06 0.04 0.04 0.25 0.21
0.12 0.16 0.33 0.47 0.42 0.22 0.08 0.06 0.09 0.03 0.05 0.11 0.15 0.20 0.07 0.01 0.03 0.09 0.12 0.13 0.14 0.17 0.14 0.06 0.03 0.02 0.08 0.07 0.03 0.02 0.00 0.00 0.00 0.00 0.00 0.00 0.00 0.00 0.00 0.00 0.00 0.00 0.03 0.09
0.06 0.11 0.16 0.15 0.08 0.03 0.04 0.05 0.07 0.09 0.15 0.11 0.12 0.20 0.09 0.04 0.07 0.17 0.16 0.23 0.17 0.11 0.10 0.04 0.03 0.01 0.04 0.06 0.01 0.00 0.00 0.00 0.00 0.00 0.00 0.00 0.00 0.00 0.00 0.00 0.00 0.00 0.00 0.02
0.04 0.02 0.01 0.00 0.01 0.02 0.08 0.07 0.05 0.03 0.10 0.06 0.07 0.16 0.28 0.09 0.09 0.13 0.09 0.05 0.05 0.06 0.06 0.05 0.03 0.02 0.06 0.03 0.01 0.02 0.01 0.02 0.03 0.02 0.00 0.00 0.00 0.00 0.00 0.00 0.00 0.00 0.00 0.00
0.00 0.02 0.03 0.02 0.04 0.06 0.04 0.01 0.05 0.07 0.08 0.08 0.07 0.10 0.17 0.07 0.13 0.07 0.03 0.02 0.02 0.04 0.06 0.04 0.02 0.04 0.05 0.16 0.29 0.25 0.10 0.06 0.08 0.11 0.05 0.04 0.02 0.02 0.02 0.01 0.00 0.00 0.00 0.00
0.01 0.05 0.04 0.03 0.02 0.02 0.01 0.02 0.03 0.07 0.08 0.10 0.08 0.06 0.09 0.05 0.01 0.03 0.02 0.05 0.06 0.08 0.08 0.04 0.09 0.32 0.21 0.45 0.61 0.34 0.13 0.05 0.06 0.07 0.07 0.08 0.07 0.07 0.04 0.03 0.02 0.00 0.00 0.02
0.00 0.01 0.01 0.01 0.01 0.01 0.02 0.02 0.01 0.02 0.06 0.04 0.04 0.05 0.01 0.02 0.00 0.04 0.06 0.06 0.04 0.04 0.03 0.12 0.37 0.29 0.38 0.45 0.45 0.16 0.05 0.01 0.03 0.05 0.09 0.07 0.08 0.09 0.09 0.08 0.07 0.06 0.03 0.04
0.02 0.04 0.03 0.01 0.01 0.01 0.01 0.02 0.02 0.04 0.03 0.02 0.03 0.07 0.09 0.06 0.08 0.18 0.13 0.07 0.06 0.05 0.12 0.30 0.46 0.32 0.20 0.17 0.14 0.14 0.09 0.04 0.01 0.03 0.13 0.07 0.02 0.02 0.05 0.02 0.01 0.01 0.02 0.03
0.02 0.03 0.01 0.00 0.01 0.00 0.01 0.01 0.05 0.07 0.04 0.04 0.08 0.14 0.13 0.12 0.15 0.13 0.14 0.07 0.05 0.13 0.35 0.44 0.32 0.06 0.16 0.08 0.07 0.07 0.09 0.12 0.08 0.05 0.09 0.18 0.07 0.06 0.16 0.05 0.02 0.01 0.01 0.01
0.00 0.01 0.01 0.00 0.01 0.01 0.01 0.01 0.01 0.03 0.06 0.15 0.28 0.24 0.23 0.24 0.18 0.09 0.08 0.09 0.21 0.40 0.26 0.25 0.04 0.00 0.04 0.08 0.02 0.05 0.05 0.04 0.08 0.12 0.24 0.30 0.19 0.21 0.35 0.26 0.15 0.08 0.04 0.03
0.00 0.00 0.00 0.02 0.03 0.04 0.04 0.02 0.01 0.07 0.14 0.17 0.22 0.17 0.21 0.18 0.09 0.12 0.07 0.16 0.54 0.48 0.12 0.07 0.05 0.00 0.00 0.00 0.01 0.01 0.04 0.04 0.02 0.03 0.08 0.14 0.16 0.18 0.15 0.20 0.21 0.13 0.07 0.04
0.00 0.00 0.02 0.04 0.04 0.03 0.03 0.03 0.04 0.10 0.14 0.19 0.26 0.32 0.24 0.39 0.37 0.58 0.43 0.53 0.65 0.23 0.06 0.01 0.00 0.00 0.00 0.00 0.00 0.00 0.00 0.00 0.00 0.01 0.01 0.01 0.00 0.01 0.02 0.02 0.05 0.08 0.07 0.06

GFSNW_prec_precacc24_210.txt.gz
Total_Precipitation_Accumulation
0.06 0.05 0.06 0.09 0.12 0.16 0.13 0.16 0.17 0.09 0.20 0.28 0.37 0.38 0.20 0.14 0.11 0.17 0.47 0.56 0.60 0.59 0.46 0.65 0.68 0.58 0.37 0.35 0.35 0.57 0.74 1.20 0.80 0.29 0.20 0.24 0.48 0.83 1.08 1.53 1.48 1.22 1.15 0.55
0.07 0.08 0.08 0.08 0.14 0.22 0.14 0.21 0.07 0.08 0.42 0.37 0.17 0.07 0.05 0.10 0.13 0.16 0.32 0.43 0.47 0.50 0.47 0.46 0.26 0.26 0.17 0.24 0.42 0.61 0.54 0.98 1.00 0.51 0.43 0.48 0.55 0.57 0.86 1.31 1.58 1.11 1.07 0.56
0.07 0.08 0.11 0.14 0.18 0.36 0.26 0.25 0.17 0.09 0.20 0.16 0.20 0.17 0.13 0.10 0.06 0.08 0.16 0.25 0.28 0.29 0.20 0.23 0.25 0.07 0.05 0.13 0.19 0.32 0.59 0.75 0.47 0.40 0.33 0.49 0.61 0.57 0.63 0.87 1.22 0.96 0.80 0.61
0.06 0.08 0.08 0.11 0.22 0.57 0.56 0.43 0.21 0.09 0.18 0.13 0.08 0.17 0.18 0.08 0.07 0.09 0.09 0.13 0.14 0.19 0.16 0.10 0.08 0.05 0.04 0.03 0.07 0.18 0.49 0.62 0.25 0.16 0.12 0.06 0.08 0.08 0.16 0.36 0.52 0.71 0.56 0.51
0.06 0.08 0.11 0.15 0.34 0.71 0.92 0.66 0.20 0.15 0.09 0.08 0.17 0.32 0.32 0.18 0.14 0.19 0.12 0.09 0.06 0.14 0.13 0.11 0.05 0.03 0.05 0.06 0.05 0.15 0.29 0.38 0.17 0.17 0.04 0.03 0.07 0.03 0.03 0.05 0.10 0.19 0.17 0.15
0.07 0.12 0.16 0.16 0.26 0.67 0.94 0.68 0.40 0.43 0.27 0.14 0.20 0.17 0.16 0.13 0.18 0.15 0.12 0.16 0.20 0.16 0.12 0.12 0.12 0.08 0.06 0.04 0.05 0.08 0.22 0.35 0.35 0.28 0.09 0.19 0.31 0.07 0.02 0.02 0.02 0.06 0.16 0.09
0.12 0.17 0.24 0.27 0.30 0.59 0.49 0.33 0.35 0.65 0.44 0.19 0.14 0.12 0.14 0.14 0.13 0.15 0.06 0.10 0.11 0.10 0.08 0.06 0.03 0.02 0.01 0.03 0.04 0.10 0.17 0.19 0.31 0.24 0.18 0.32 0.09 0.02 0.02 0.04 0.05 0.06 0.07 0.06
0.18 0.24 0.29 0.34 0.40 0.57 0.61 0.38 0.40 0.51 0.38 0.19 0.18 0.16 0.16 0.16 0.14 0.10 0.05 0.05 0.06 0.09 0.12 0.12 0.06 0.01 0.01 0.00 0.00 0.01 0.03 0.16 0.36 0.27 0.19 0.11 0.02 0.00 0.01 0.02 0.02 0.01 0.02 0.08
0.20 0.28 0.26 0.31 0.40 0.57 0.68 0.38 0.32 0.65 0.49 0.20 0.11 0.24 0.27 0.17 0.13 0.15 0.08 0.01 0.02 0.09 0.16 0.26 0.19 0.04 0.04 0.06 0.07 0.08 0.12 0.23 0.46 0.38 0.35 0.14 0.05 0.03 0.00 0.03 0.05 0.01 0.01 0.03
0.16 0.18 0.28 0.24 0.35 0.62 0.73 0.59 0.21 0.75 0.78 0.15 0.12 0.16 0.21 0.20 0.22 0.24 0.17 0.14 0.19 0.25 0.34 0.29 0.24 0.24 0.20 0.17 0.17 0.18 0.26 0.42 0.71 0.57 0.72 0.46 0.20 0.03 0.03 0.22 0.22 0.15 0.13 0.12
0.12 0.10 0.14 0.19 0.29 0.54 0.85 0.83 0.34 0.33 0.50 0.17 0.07 0.06 0.09 0.18 0.26 0.37 0.47 0.51 0.43 0.38 0.36 0.39 0.29 0.30 0.34 0.21 0.24 0.26 0.38 0.42 0.59 0.48 0.64 0.76 0.27 0.12 0.20 0.25 0.13 0.09 0.06 0.13
0.11 0.11 0.12 0.12 0.16 0.42 0.68 0.90 0.89 0.70 0.33 0.18 0.07 0.02 0.02 0.07 0.21 0.30 0.36 0.50 0.54 0.70 0.58 0.38 0.19 0.18 0.22 0.18 0.22 0.12 0.22 0.14 0.18 0.28 0.50 0.39 0.47 0.43 0.23 0.17 0.21 0.15 0.06 0.16
0.06 0.03 0.04 0.10 0.18 0.35 0.37 0.50 0.54 0.74 0.49 0.11 0.02 0.00 0.00 0.00 0.02 0.05 0.12 0.22 0.24 0.20 0.27 0.23 0.07 0.04 0.02 0.02 0.02 0.01 0.01 0.00 0.01 0.03 0.09 0.08 0.31 0.31 0.25 0.17 0.19 0.17 0.07 0.07
0.03 0.02 0.02 0.09 0.25 0.39 0.21 0.24 0.26 0.24 0.23 0.18 0.09 0.01 0.02 0.00 0.02 0.00 0.02 0.08 0.05 0.05 0.02 0.03 0.03 0.01 0.00 0.00 0.00 0.00 0.00 0.00 0.00 0.00 0.00 0.00 0.02 0.02 0.02 0.06 0.13 0.25 0.12 0.13
0.03 0.07 0.11 0.21 0.58 0.47 0.24 0.18 0.09 0.08 0.24 0.49 0.30 0.03 0.06 0.03 0.01 0.02 0.01 0.02 0.07 0.08 0.07 0.06 0.03 0.00 0.01 0.00 0.00 0.00 0.00 0.01 0.01 0.00 0.00 0.00 0.00 0.00 0.00 0.00 0.03 0.19 0.38 0.29
0.08 0.09 0.17 0.39 0.58 0.37 0.12 0.08 0.04 0.01 0.03 0.10 0.16 0.10 0.07 0.01 0.00 0.03 0.06 0.06 0.04 0.04 0.06 0.06 0.01 0.01 0.06 0.03 0.01 0.00 0.00 0.00 0.00 0.00 0.00 0.00 0.00 0.00 0.00 0.00 0.00 0.02 0.25 0.21
0.05 0.11 0.27 0.36 0.28 0.10 0.03 0.04 0.03 0.01 0.04 0.11 0.15 0.21 0.09 0.03 0.03 0.09 0.13 0.16 0.16 0.18 0.15 0.06 0.03 0.02 0.07 0.07 0.03 0.02 0.00 0.00 0.00 0.00 0.00 0.00 0.00 0.00 0.00 0.00 0.00 0.00 0.03 0.09
0.03 0.08 0.13 0.13 0.06 0.02 0.04 0.04 0.02 0.02 0.08 0.10 0.12 0.20 0.09 0.07 0.10 0.19 0.17 0.25 0.19 0.12 0.10 0.04 0.03 0.01 0.04 0.04 0.01 0.00 0.00 0.00 0.00 0.00 0.00 0.00 0.00 0.00 0.00 0.00 0.00 0.00 0.00 0.02
0.00 0.00 0.00 0.00 0.01 0.02 0.07 0.04 0.01 0.02 0.06 0.05 0.07 0.16 0.28 0.09 0.09 0.13 0.09 0.06 0.05 0.06 0.06 0.05 0.03 0.02 0.05 0.03 0.01 0.02 0.01 0.02 0.03 0.02 0.00 0.00 0.00 0.00 0.00 0.00 0.00 0.00 0.00 0.00
0.00 0.02 0.03 0.02 0.04 0.04 0.02 0.01 0.02 0.04 0.06 0.09 0.08 0.10 0.17 0.07 0.14 0.08 0.03 0.02 0.02 0.04 0.06 0.04 0.03 0.04 0.05 0.15 0.29 0.25 0.10 0.07 0.09 0.12 0.06 0.05 0.03 0.02 0.02 0.01 0.00 0.00 0.00 0.00
0.01 0.05 0.03 0.02 0.01 0.01 0.01 0.01 0.02 0.06 0.09 0.15 0.16 0.08 0.11 0.06 0.02 0.03 0.02 0.05 0.06 0.08 0.08 0.04 0.09 0.30 0.17 0.39 0.53 0.31 0.13 0.05 0.07 0.07 0.08 0.09 0.08 0.07 0.04 0.02 0.02 0.01 0.01 0.03
0.00 0.01 0.01 0.01 0.01 0.01 0.02 0.02 0.01 0.02 0.06 0.05 0.04 0.06 0.02 0.02 0.00 0.03 0.06 0.06 0.04 0.04 0.03 0.10 0.34 0.23 0.25 0.26 0.28 0.09 0.05 0.01 0.03 0.05 0.08 0.08 0.08 0.09 0.08 0.07 0.06 0.06 0.03 0.04
0.02 0.05 0.03 0.01 0.01 0.01 0.01 0.02 0.02 0.04 0.04 0.03 0.03 0.07 0.09 0.06 0.04 0.12 0.11 0.06 0.05 0.04 0.10 0.20 0.23 0.09 0.10 0.14 0.14 0.13 0.08 0.03 0.01 0.02 0.03 0.03 0.01 0.01 0.04 0.01 0.01 0.02 0.02 0.04
0.02 0.03 0.01 0.00 0.01 0.00 0.01 0.01 0.05 0.07 0.04 0.04 0.08 0.14 0.13 0.10 0.10 0.08 0.10 0.07 0.04 0.08 0.16 0.13 0.05 0.01 0.02 0.03 0.06 0.06 0.08 0.12 0.08 0.05 0.01 0.01 0.01 0.06 0.16 0.06 0.03 0.02 0.02 0.02
0.00 0.01 0.01 0.00 0.01 0.01 0.01 0.01 0.01 0.02 0.06 0.12 0.17 0.19 0.19 0.21 0.13 0.05 0.06 0.07 0.08 0.12 0.17 0.18 0.03 0.00 0.00 0.00 0.01 0.05 0.05 0.04 0.07 0.08 0.11 0.13 0.10 0.20 0.35 0.26 0.16 0.10 0.06 0.04
0.00 0.00 0.00 0.02 0.03 0.04 0.04 0.02 0.01 0.07 0.10 0.09 0.09 0.11 0.16 0.15 0.08 0.10 0.05 0.09 0.27 0.29 0.11 0.07 0.06 0.02 0.02 0.01 0.01 0.01 0.04 0.03 0.02 0.03 0.07 0.13 0.15 0.18 0.15 0.21 0.22 0.14 0.08 0.06
0.00 0.00 0.02 0.04 0.04 0.03 0.03 0.03 0.04 0.10 0.13 0.15 0.21 0.32 0.23 0.19 0.23 0.31 0.38 0.38 0.25 0.16 0.09 0.04 0.04 0.05 0.04 0.02 0.00 0.00 0.00 0.00 0.00 0.01 0.01 0.01 0.00 0.01 0.02 0.03 0.06 0.10 0.09 0.07